Weather History for KIAB - December, 2013

Change the Weather History Date:

Saturday, December 14, 2013

  Actual Average Record
Temperature  
Mean Temperature 30 °F -  
Max Temperature 37 °F 43 °F 64 °F (2006)
Min Temperature 23 °F 25 °F 5 °F (2000)
Degree Days  
Heating Degree Days 35    
Moisture  
Dew Point 26 °F    
Average Humidity 86    
Maximum Humidity 100    
Minimum Humidity 48    
Precipitation  
Precipitation 0.00 in - - ()
Sea Level Pressure  
Sea Level Pressure 30.13 in    
Wind  
Wind Speed 17 mph (North)    
Max Wind Speed 25 mph    
Max Gust Speed 34 mph    
Visibility 10 miles    
Events      
Averages and records for this station are not official NWS values.
T = Trace of Precipitation, MM = Missing Value Source: NWS Daily Summary

Daily Weather History Graph

Daily Weather History Graph

Search for Another Location

Airport or City:

Trip Planner

Search our weather history database for the weather conditions in past years. The results will help you decide how hot, cold, wet, or windy it might be!

Date:

Astronomy

Dec. 14, 2013 Rise Set
Actual Time 7:36 AM CST 5:11 PM CST
Civil Twilight 7:07 AM CST 5:40 PM CST
Nautical Twilight 6:34 AM CST 6:13 PM CST
Astronomical Twilight 6:02 AM CST 6:45 PM CST
Moon 3:32 PM CST (12/14) 5:00 AM CST (12/14)
Length of Visible Light 10h 33m
Length of Day
9h 35m
Waxing Gibbous, 94% of the Moon is Illuminated
Dec 14
Waxing Gibbous
Dec 17
Full
Dec 25
Last Quarter
Jan 1
New
Jan 7
First Quarter

Hourly Weather History & Observations

Time (CST) Temp. Windchill Dew Point Humidity Pressure Visibility Wind Dir Wind Speed Gust Speed Precip Events Conditions
12:03 AM 37.4 °F 27.5 °F 37.4 °F 100% 29.91 in 10.0 mi North 18.4 mph 23.0 mph N/A   Overcast
12:12 AM 37.4 °F 27.8 °F 37.4 °F 100% 29.91 in 10.0 mi North 17.3 mph 23.0 mph N/A   Overcast
12:22 AM 37.4 °F 27.8 °F 37.4 °F 100% 29.91 in 9.0 mi North 17.3 mph - N/A   Overcast
12:27 AM 37.4 °F 27.5 °F 37.4 °F 100% 29.91 in 8.0 mi North 18.4 mph 23.0 mph N/A   Overcast
12:47 AM 37.4 °F 26.6 °F 37.4 °F 100% 29.91 in 9.0 mi North 21.9 mph 26.5 mph N/A   Overcast
12:52 AM 35.6 °F 23.7 °F 35.6 °F 100% 29.91 in 9.0 mi North 24.2 mph 27.6 mph N/A   Overcast
12:58 AM 35.4 °F 25.3 °F 35.4 °F 100% 29.95 in 10.0 mi North 17.3 mph 27.6 mph N/A   Overcast
1:08 AM 35.6 °F 25.2 °F 35.6 °F 100% 29.92 in 9.0 mi North 18.4 mph 23.0 mph N/A   Overcast
1:58 AM 32.5 °F 20.5 °F 32.4 °F 99% 29.99 in 9.0 mi North 20.7 mph 26.5 mph N/A   Overcast
2:58 AM 30.6 °F 18.6 °F 30.2 °F 99% 30.02 in 8.0 mi North 18.4 mph - N/A   Overcast
3:48 AM 30.2 °F 17.8 °F 28.4 °F 93% 30.01 in 10.0 mi North 19.6 mph 25.3 mph N/A   Overcast
3:58 AM 29.5 °F 15.8 °F 28.8 °F 97% 30.04 in 10.0 mi North 23.0 mph 32.2 mph N/A   Overcast
4:48 AM 26.6 °F 11.4 °F 26.6 °F 100% 30.03 in 9.0 mi North 25.3 mph 34.5 mph N/A   Overcast
4:58 AM 26.4 °F 11.5 °F 26.1 °F 99% 30.07 in 9.0 mi North 24.2 mph 31.1 mph N/A   Overcast
5:18 AM 26.6 °F 13.4 °F 24.8 °F 93% 30.05 in 10.0 mi North 18.4 mph 27.6 mph N/A   Overcast
5:58 AM 25.5 °F 12.0 °F 25.3 °F 99% 30.13 in 10.0 mi North 18.4 mph - N/A   Overcast
6:33 AM 24.8 °F 9.6 °F 24.8 °F 100% 30.10 in 9.0 mi North 23.0 mph 28.8 mph N/A   Overcast
6:58 AM 24.8 °F 11.1 °F 24.6 °F 99% 30.18 in 9.0 mi NNW 18.4 mph 28.8 mph N/A   Overcast
7:08 AM 24.8 °F 10.7 °F 24.8 °F 100% 30.13 in 10.0 mi North 19.6 mph 26.5 mph N/A   Overcast
7:58 AM 24.8 °F 9.3 °F 24.3 °F 98% 30.20 in 10.0 mi NNW 24.2 mph 26.5 mph N/A   Overcast
8:58 AM 25.3 °F 11.0 °F 23.2 °F 91% 30.23 in 10.0 mi North 20.7 mph 24.2 mph N/A   Overcast
9:58 AM 25.2 °F 12.0 °F 21.2 °F 85% 30.25 in 10.0 mi North 17.3 mph 27.6 mph N/A   Overcast
10:18 AM 24.8 °F 12.4 °F 21.2 °F 86% 30.22 in 10.0 mi NNW 15.0 mph - N/A   Overcast
10:58 AM 26.6 °F 13.4 °F 19.4 °F 74% 30.27 in 10.0 mi North 18.4 mph - N/A   Scattered Clouds
11:58 AM 30.6 °F 19.0 °F 18.9 °F 62% 30.25 in 10.0 mi North 17.3 mph 21.9 mph N/A   Clear
12:58 PM 33.3 °F 24.1 °F 18.9 °F 56% 30.24 in 10.0 mi North 12.7 mph - N/A   Clear
1:58 PM 35.8 °F 26.5 °F 18.9 °F 50% 30.22 in 10.0 mi NW 15.0 mph 18.4 mph N/A   Clear
2:58 PM 37.2 °F 29.1 °F 18.9 °F 48% 30.23 in 10.0 mi NNW 12.7 mph - N/A   Clear
3:58 PM 37.6 °F 30.0 °F 20.7 °F 51% 30.25 in 10.0 mi NW 11.5 mph - N/A   Clear
4:58 PM 36.5 °F 29.7 °F 21.0 °F 54% 30.26 in 10.0 mi NNW 9.2 mph - N/A   Clear
5:58 PM 32.5 °F 26.2 °F 21.4 °F 64% 30.27 in 10.0 mi North 6.9 mph - N/A   Clear
6:58 PM 31.3 °F - 21.7 °F 68% 30.29 in 10.0 mi North 2.3 mph - N/A   Clear
7:58 PM 29.8 °F - 21.4 °F 71% 30.29 in 10.0 mi Calm Calm - N/A   Clear
8:58 PM 29.1 °F - 21.4 °F 73% 30.29 in 10.0 mi ENE 1.2 mph - N/A   Clear
9:58 PM 28.2 °F - 21.6 °F 76% 30.29 in 10.0 mi Calm Calm - N/A   Clear
10:58 PM 23.4 °F 17.4 °F 20.5 °F 89% 30.30 in 10.0 mi SSW 4.6 mph - N/A   Clear
11:58 PM 23.2 °F - 21.6 °F 94% 30.27 in 10.0 mi South 2.3 mph - N/A   Clear